Location: ????
(30.2663°N, 31.2484°E)
Time: 22:16:22
(UTC+00:00)

Cosmos 1656 - Visible Passes

Search period start: 20 March 2023 00:00
Search period end: 30 March 2023 00:00
Orbit: 799 x 848 km, 71.1° (Epoch: 19 March)

Date Brightness Start Highest point End Pass type
(mag) Time Alt. Az. Time Alt. Az. Time Alt. Az.
20 Mar 4.9 03:11:55 10° S 03:17:00 43° ESE 03:22:06 10° NE visible
21 Mar 5.3 02:51:35 10° SSE 02:56:28 35° ESE 03:01:22 10° NE visible
22 Mar 5.5 02:31:20 10° SSE 02:35:56 29° ESE 02:40:34 10° NE visible
23 Mar 5.8 02:11:09 10° SSE 02:15:25 24° ESE 02:19:42 10° NE visible
24 Mar 6.0 01:51:04 10° SE 01:54:55 20° E 01:58:46 10° NE visible
25 Mar 6.2 01:31:09 10° SE 01:34:24 16° E 01:37:40 10° ENE visible
25 Mar 3.9 03:12:22 10° SW 03:17:32 45° WNW 03:22:45 10° N visible
26 Mar 6.3 01:11:27 10° SE 01:13:55 13° E 01:16:23 10° ENE visible
26 Mar 3.7 02:51:39 10° SW 02:56:56 55° WNW 03:02:16 10° N visible
27 Mar 6.4 00:52:28 10° ESE 00:53:26 10° E 00:54:23 10° E visible
27 Mar 3.5 02:32:19 18° SSW 02:36:20 67° WNW 02:41:46 10° NNE visible
28 Mar 3.5 02:13:11 32° SSW 02:15:45 81° WNW 02:21:13 10° NNE visible
29 Mar 3.5 01:53:52 54° S 01:55:10 84° ESE 02:00:38 10° NNE visible
